Regional Weather Roundup
Issued by NWS

Home | Current Version | Previous Version | Graphics & Text | Print | Product List | Glossary On
Versions: 1 2 3 4 5 6 7 8 9 10 11 12 13 14 15 16 17 18 19 20 21 22 23 24 25 26 27
000
ASUS45 KBOU 210707
RWRCO

WEATHER ROUNDUP FOR COLORADO
NATIONAL WEATHER SERVICE DENVER/BOULDER CO
1200 AM MST TUE FEB 21 2017

NOTE: "FAIR" INDICATES FEW OR NO CLOUDS BELOW 12000 FEET WITH NO
SIGNIFICANT WEATHER AND/OR OBSTRUCTIONS TO VISIBILITY.

COZ001>005-013-030-031-210800-
...NORTHWEST COLORADO...

CITY           SKY/WX    TMP DP  RH WIND       PRES   REMARKS
CRAIG          CLOUDY    42  30  62 SW9       30.18R
HAYDEN         CLOUDY    36  25  64 S6        30.18R
MEEKER         CLOUDY    37  31  78 CALM      30.21R
MOUNT WERNER   NOT AVBL
STEAMBOAT SPGS CLOUDY    33  28  85 E6        30.19R WCI  27
WALDEN         NOT AVBL
$$

COZ006>008-011-210800-
...WEST CENTRAL VALLEYS...

CITY           SKY/WX    TMP DP  RH WIND       PRES   REMARKS
GRAND JUNCTION CLOUDY    44  38  79 E5        30.24R
MONTROSE       CLOUDY    41  31  67 VRB5      30.31R
EAGLE          FAIR      31  26  82 E6        30.25R WCI  25
RIFLE          MOCLDY    35  30  82 SE6       30.25R WCI  30
DELTA          CLOUDY    41  35  77 CALM      30.30R
NUCLA          CLOUDY    43  32  65 E5        30.34S
$$

COZ017>023-064>068-210800-
...SOUTHWEST COLORADO...

CITY           SKY/WX    TMP DP  RH WIND       PRES   REMARKS
DURANGO        FAIR      31  26  82 CALM      30.36R
CORTEZ         CLOUDY    38  35  89 CALM      30.35R
PAGOSA SPRINGS FAIR      28  26  94 CALM      30.38R
TELLURIDE      MOCLDY    36  22  56 SW6       30.37R
WOLF CREEK PAS SNOW      21  21 100 SW17      30.44R VSB 1/4 WCI   7
$$

COZ009-010-012-014-032>034-037-058>063-210800-
...CENTRAL COLORADO...

CITY           SKY/WX    TMP DP  RH WIND       PRES   REMARKS
ASPEN          FAIR      30  22  72 CALM      30.23R
BUENA VISTA    FAIR      33  17  53 W3        30.24R
COPPER MTN     CLOUDY    32  12  43 SW9G17    30.32R WCI  24
BERTHOUD PASS  FAIR      23  14  68 W30G41    30.27R WCI   5
COTTONWOOD PAS FAIR      37  10  32 NW7G17    30.27R
GUNNISON       FAIR      22  18  85 CALM      30.34R
KREMMLING      FAIR      37  28  70 E9        30.20S
LEADVILLE      CLOUDY    24   9  52 NE3       30.26R
MONARCH PASS   FAIR      23  12  63 W26       30.46R WCI   6
SALIDA         FAIR      39  17  40 W5        30.29S
SUNLIGHT       NOT AVBL
WILKERSON PASS FAIR      30   9  40 SW20G28   30.30S WCI  18
$$

COZ069>075-210800-
...SAN LUIS VALLEY/SANGRE DE CRISTO MOUNTAINS...

CITY           SKY/WX    TMP DP  RH WIND       PRES   REMARKS
ALAMOSA        FAIR      26  22  84 CALM      30.28S
LA VETA PASS   FAIR      28  18  64 NE26      30.28F WCI  13
SAGUACHE       FAIR      27  19  74 NW10      30.29S WCI  17
$$

COZ035-036-038>040-210800-
...NORTHERN COLORADO FRONT RANGE...

CITY           SKY/WX    TMP DP  RH WIND       PRES   REMARKS
DENVER INTL AP FAIR      47  10  22 S15       29.99S
DMNS CITY PARK   N/A     45  12  25 S8        29.99F
AURORA         PTCLDY    46  10  22 S14       30.01R
FRONT RANGE AP FAIR      48  12  23 S17       30.00S
ERIE MUNI ARPT FAIR      36  16  43 CALM      29.98F
BOULDER MUN AP FAIR      45  16  31 NE3       29.97S
CENTENNIAL     FAIR      51   9  18 S15       30.01S
BROOMFIELD     FAIR      45  14  29 S3        29.99S
FORT COLLINS   FAIR      41  17  38 NE8       29.98F
LONGMONT       FAIR      43  18  36 CALM      29.99F
$$

COZ041-046-047-076>085-087-088-210800-
...PIKES PEAK/PALMER DIVIDE AND SOUTHERN FOOTHILLS...

CITY           SKY/WX    TMP DP  RH WIND       PRES   REMARKS
COLO. SPRINGS  FAIR      40   5  23 NE10      30.09F
A. F. ACADEMY  FAIR      32   6  32 CALM      30.08F
SCHRIEVER AFB  FAIR      38   6  26 N9        30.09F
ELLICOTT       FAIR     N/A N/A N/A S10       30.07F
FALCON         FAIR      35   5  28 W3        30.11S
FORT CARSON    FAIR      35   8  32 NW6       30.06F WCI  30
LIMON          FAIR      39  12  33 S8        30.06R
MONUMENT HILL  FAIR      37   7  28 S13       30.11R
TRINIDAD       FAIR      35  11  36 W12       30.12S WCI  27
$$

COZ042>045-048>051-090-091-210800-
...NORTHEAST COLORADO...

CITY           SKY/WX    TMP DP  RH WIND       PRES   REMARKS
GREELEY ARPT   FAIR      29  16  58 NW12      29.99S WCI  19
AKRON          FAIR      45  14  28 S16       29.99F
BURLINGTON     FAIR      38  13  35 SW9       30.03S
WRAY           NOT AVBL
STERLING       FAIR      39  21  48 SW17      29.98R
HOLYOKE        NOT AVBL
FORT MORGAN    FAIR      38  14  37 SE6       29.98F
$$

COZ086-089-092>099-210800-
...SOUTHEAST COLORADO...

CITY           SKY/WX    TMP DP  RH WIND       PRES   REMARKS
PUEBLO         FAIR      31  11  43 W7        30.05F WCI  24
LA JUNTA       FAIR      44  15  31 S10       30.05F
LAMAR          FAIR      28  13  53 NW6       30.04S WCI  22
SPRINGFIELD      N/A     31  14  49 SW10      30.09S WCI  22
$$




USA.gov is the U.S. government's official web portal to all federal, state and local government web resources and services.